Location: Alphen
(52.1351°N, 4.6549°E)
Time: 00:19:36
(UTC+00:00)

SKYMED 2 - Pass Details

Date: 27 January 2021
Orbit: 621 x 623 km, 97.9° (Epoch: 27 February)

Event Time Altitude Azimuth Distance (km) Brightness Sun altitude
Rises 04:19:05 0° 153° (SSE) 2,895 7.2 -28.9°
Reaches altitude 10° 04:21:17 10° 149° (SSE) 1,993 6.4 -28.6°
Enters shadow 04:24:37 47° 119° (ESE) 831 4.4 -28.1°
